Flag for Russia Weather past 2 weeks in Yekaterinburg, Russia

Now
57 °F

Mostly cloudy.


Feels Like: 57 °F
Forecast: 57 / 82 °F
Wind: 1 mph from Southeast

Location: Ekaterinburg

Current Time: May 28, 2015 at 5:27:56 AM

Latest Report: May 28, 2015 at 5:00 AM


Visibility: N/A

Pressure: 29.98 "Hg

Humidity: 88%

Dew point: 54 °F

Location of YekaterinburgLocation

Historic Weather in Yekaterinburg — Graph

°F

Yekaterinburg temperature yesterday

Maximum temperature yesterday: 77 °F (at 4:00 PM)
Minimum temperature yesterday: 39 °F (at 3:30 AM)
Average temperature yesterday: 62 °F

Past Weeks' High & Low Weather Summary

 TemperatureHumidityPressure
High77 °F (May 27, 4:00 PM)100% (May 13, 4:30 AM)30.15 "Hg (May 13, 4:30 AM)
Low28 °F (May 23, 4:00 AM)11% (May 22, 7:00 PM)29.36 "Hg (May 17, 9:00 AM)
Average55 °F72%29.81 "Hg
* Reported May 13 4:00 AM — May 28 4:30 AM, Yekaterinburg, Weather by CustomWeather, © 2015

Note: Actual official high and low records may vary slightly from our data, if they occured in-between our weather recording intervals... More about our weather records

Advertising

Yekaterinburg weather history for previous 24 hours

 ConditionsComfort  
Time TempWeatherWind HumidityBarometerVisibility
4:30 AM
Thu, May 28
57 °FSprinkles. Mostly cloudy.1 mph88%29.98 "Hg5 mi
4:00 AM55 °FSprinkles. Mostly cloudy.6 mph94%30.01 "Hg5 mi
3:30 AM54 °FPartly cloudy.1 mph88%29.98 "HgN/A
3:00 AM55 °FClear.No wind88%29.98 "Hg10 mi
2:30 AM55 °FClear.No wind88%29.98 "Hg10 mi
2:00 AM55 °FClear.1 mph88%29.98 "Hg10 mi
1:30 AM55 °FClear.1 mph88%29.98 "Hg10 mi
1:00 AM55 °FClear.1 mph82%30.01 "Hg10 mi
12:30 AM54 °FClear.1 mph88%30.01 "Hg10 mi
12:00 AM54 °FClear.No wind82%30.01 "Hg10 mi
11:30 PM
Wed, May 27
55 °FClear.No wind77%30.01 "Hg10 mi
11:00 PM57 °FClear.1 mph72%30.01 "Hg10 mi
10:30 PM61 °FClear.1 mph63%30.01 "Hg10 mi
10:00 PM63 °FSunny.3 mph59%30.01 "Hg10 mi
9:30 PM68 °FSunny.6 mph49%30.01 "Hg10 mi
9:00 PM70 °FSunny.6 mph46%29.98 "Hg10 mi
8:30 PM72 °FSunny.8 mph44%29.98 "Hg10 mi
8:00 PM73 °FSunny.15 mph38%29.98 "Hg10 mi
7:30 PM73 °FSunny.13 mph38%29.98 "Hg10 mi
7:00 PM73 °FSunny.6 mph41%29.98 "Hg10 mi
6:30 PM75 °FSunny.10 mph39%29.98 "Hg10 mi
6:00 PM75 °FSunny.13 mph36%29.98 "Hg10 mi
5:30 PM75 °FSunny.17 mph36%29.98 "Hg10 mi
5:00 PM77 °FSunny.17 mph30%29.98 "Hg10 mi
4:30 PM77 °FSunny.15 mph32%30.01 "Hg10 mi
4:00 PM77 °FPassing clouds.10 mph32%30.01 "HgN/A
3:30 PM75 °FSunny.17 mph34%30.01 "Hg10 mi
3:00 PM75 °FPassing clouds.13 mph34%30.01 "HgN/A
2:30 PM75 °FPassing clouds.15 mph34%30.04 "HgN/A
2:00 PM73 °FSunny.13 mph36%30.04 "Hg10 mi
1:30 PM73 °FSunny.13 mph36%30.04 "Hg10 mi
1:00 PM72 °FPassing clouds.6 mph38%30.04 "HgN/A
12:30 PM72 °FSunny.10 mph36%30.07 "Hg10 mi
12:00 PM72 °FPassing clouds.6 mph38%30.07 "HgN/A
11:30 AM70 °FPassing clouds.6 mph38%30.07 "HgN/A
11:00 AM70 °FPassing clouds.6 mph38%30.07 "HgN/A
10:30 AM68 °FSunny.10 mph43%30.09 "Hg10 mi
9:00 AM63 °FSunny.3 mph59%30.09 "Hg10 mi
8:00 AM55 °FSunny.1 mph82%30.09 "Hg10 mi
7:00 AM52 °FSunny.1 mph82%30.09 "Hg10 mi
6:00 AM45 °FSunny.No wind100%30.09 "Hg10 mi
5:00 AM39 °FFog.No wind100%30.09 "HgN/A
Weather by CustomWeather, © 2015

See weather overviewHow to use our weather pages